Waarnemingen

Advertentie
Mijn weer
Greifswald, Duitsland (10184): temperatuur & dauwpunt: 19.09.2018 11:00:00 - 25.09.2018 11:00:00 (CEST)Greifswald, Duitsland (10184): temperatuur 5cm & temperatuur -5cm: 19.09.2018 11:00:00 - 25.09.2018 11:00:00 (CEST)Greifswald, Duitsland (10184): temperatuur -20cm & temperatuur -100cm: 19.09.2018 11:00:00 - 25.09.2018 11:00:00 (CEST)Greifswald, Duitsland (10184): windsnelheid & windstoten: 19.09.2018 11:00:00 - 25.09.2018 11:00:00 (CEST)Greifswald, Duitsland (10184): windrichting: 19.09.2018 11:00:00 - 25.09.2018 11:00:00 (CEST)Greifswald, Duitsland (10184): luchtdruk: 19.09.2018 11:00:00 - 25.09.2018 11:00:00 (CEST)Greifswald, Duitsland (10184): zicht: 19.09.2018 11:00:00 - 25.09.2018 11:00:00 (CEST)Greifswald, Duitsland (10184): Zonneschijnduur: 19.09.2018 11:00:00 - 25.09.2018 11:00:00 (CEST)Greifswald, Duitsland (10184): neerslag: 19.09.2018 11:00:00 - 25.09.2018 11:00:00 (CEST)
Datum & Tijd tt [°C] td [°C] tt 5cm [°C] tt -5cm [°C] tt -20cm [°C] tt -100cm [°C] ff [km/u] ff [kn] fx [km/u] fx [kn] dd ppp [hPa] vv [km] sd [min] rr [mm]
25.09.2018 11:00:00 12,5 3,2 15,0 11,4 10,1 16,9 14 8 - - W 1034,7 40 48 0,0
25.09.2018 10:00:00 11,5 6,9 13,5 9,4 9,8 16,9 14 8 - - W 1034,0 40 60 0,0
25.09.2018 09:00:00 8,9 6,3 9,6 7,1 9,8 16,9 14 8 - - W 1033,3 30 60 0,0
25.09.2018 08:00:00 6,7 5,4 5,4 6,2 10,0 16,9 11 6 - - WZW 1032,7 30 6 0,0
25.09.2018 07:00:00 6,3 5,0 4,8 6,3 10,2 17,0 11 6 - - WZW 1032,0 40 0 0,0
25.09.2018 06:00:00 6,3 4,6 3,8 6,7 10,3 17,0 4 2 - - ZW 1031,4 50 0 0,0
25.09.2018 05:00:00 7,1 5,1 5,9 7,0 10,5 17,0 4 2 - - ZW 1031,0 60 0 0,0
25.09.2018 04:00:00 6,4 4,2 4,8 6,7 10,7 17,0 4 2 - - W 1030,1 60 0 0,0
25.09.2018 03:00:00 6,1 3,7 3,8 7,2 11,0 17,0 4 2 - - ZW 1029,7 70 0 0,0
25.09.2018 02:00:00 7,7 3,2 5,1 7,8 11,2 17,1 4 2 - - ZW 1029,3 70 0 0,0
25.09.2018 01:00:00 6,9 4,1 5,5 7,6 11,4 17,1 7 4 - - W 1028,5 60 0 0,0
25.09.2018 00:00:00 7,2 3,7 4,4 8,0 11,7 17,1 7 4 - - WNW 1027,9 60 0 0,0
24.09.2018 23:00:00 8,5 3,1 7,0 8,4 12,0 17,1 7 4 - - W 1027,1 60 0 0,0
24.09.2018 22:00:00 8,4 3,2 7,0 8,6 12,4 17,1 14 8 - - W 1026,4 60 0 0,0
24.09.2018 21:00:00 8,2 2,2 5,6 9,6 12,7 17,1 7 4 - - W 1025,7 60 0 0,0
24.09.2018 20:00:00 8,2 4,5 6,4 10,3 12,9 17,2 4 2 - - N 1024,9 60 0 0,0
24.09.2018 19:00:00 8,7 4,5 6,5 11,2 13,1 17,2 14 8 - - W 1024,2 60 11 0,7
24.09.2018 18:00:00 11,7 3,2 12,3 12,7 13,1 17,2 22 12 - - W 1023,6 50 53 0,0
24.09.2018 17:00:00 11,3 3,2 12,2 12,7 13,0 17,2 29 16 - - WNW 1023,1 55 7 0,0
24.09.2018 16:00:00 12,3 5,1 14,1 13,5 12,6 17,2 18 10 - - NW 1022,7 50 35 0,0
24.09.2018 15:00:00 11,7 6,4 12,1 13,1 12,4 17,3 18 10 - - NW 1022,5 50 38 0,0
24.09.2018 14:00:00 9,2 4,7 7,3 11,3 12,3 17,3 22 12 - - WNW 1022,2 50 12 1,2
24.09.2018 13:00:00 10,7 6,4 10,7 12,5 12,0 17,3 32 18 - - WNW 1021,2 50 25 0,0
24.09.2018 12:00:00 9,8 6,2 10,4 11,3 11,8 17,3 32 18 - - WNW 1020,5 50 9 0,0
24.09.2018 11:00:00 9,8 6,2 9,4 10,7 11,6 17,3 25 14 - - WNW 1019,0 60 13 0,1
24.09.2018 10:00:00 11,7 6,5 11,3 10,3 11,4 17,4 29 16 - - WNW 1017,7 20 34 0,0
24.09.2018 09:00:00 10,1 5,9 9,2 8,7 11,4 17,4 32 18 - - W 1016,6 30 2 0,2
24.09.2018 08:00:00 9,4 6,0 7,9 8,3 11,6 17,4 29 16 - - W 1015,5 11 0 0,1
24.09.2018 07:00:00 9,0 5,0 7,6 8,1 11,8 17,4 25 14 - - W 1014,9 35 0 0,0
24.09.2018 06:00:00 9,1 5,1 7,5 8,3 12,0 17,4 32 18 - - W 1014,2 34 0 0,0
24.09.2018 05:00:00 9,2 5,6 7,4 8,6 12,3 17,4 36 19 - - W 1013,7 30 0 0,0
24.09.2018 04:00:00 9,5 6,0 7,8 9,0 12,5 17,5 29 16 - - W 1012,9 33 0 0,0
24.09.2018 03:00:00 9,4 6,5 7,7 9,3 12,8 17,5 29 16 - - W 1012,1 35 0 0,0
24.09.2018 02:00:00 9,4 6,5 7,8 9,9 13,0 17,5 25 14 - - WZW 1011,3 42 0 0,1
24.09.2018 01:00:00 9,1 6,5 7,8 10,4 13,2 17,5 22 12 - - WZW 1010,7 60 0 1,0
24.09.2018 00:00:00 10,6 6,1 9,4 10,6 13,4 17,5 18 10 - - WZW 1010,0 60 0 0,0
23.09.2018 23:00:00 10,6 5,7 9,3 11,0 13,6 17,5 22 12 - - WZW 1009,0 30 0 0,0
23.09.2018 22:00:00 10,2 6,7 9,6 11,2 13,8 17,6 18 10 - - W 1008,2 60 0 0,0
23.09.2018 21:00:00 10,6 6,3 10,1 11,7 14,0 17,6 18 10 - - W 1008,1 62 0 0,0
23.09.2018 20:00:00 11,0 6,4 10,3 12,1 14,2 17,6 11 6 - - WZW 1007,6 55 0 0,0
23.09.2018 19:00:00 11,7 7,9 10,9 12,8 14,3 17,6 11 6 - - WZW 1007,7 27 0 0,0
23.09.2018 18:00:00 12,3 7,8 11,8 13,3 14,4 17,6 7 4 - - W 1008,0 35 0 0,0
23.09.2018 17:00:00 12,8 7,6 12,1 13,7 14,4 17,6 11 6 - - W 1008,4 35 0 0,0
23.09.2018 16:00:00 13,2 7,4 12,8 14,5 14,4 17,7 7 4 - - W 1009,6 35 0 0,0
23.09.2018 15:00:00 13,5 7,1 13,8 15,2 14,1 17,7 11 6 - - W 1009,9 40 0 0,0
23.09.2018 14:00:00 13,7 7,6 14,7 15,2 13,7 17,7 11 6 - - W 1010,9 22 0 0,0
23.09.2018 13:00:00 13,4 7,6 14,2 15,0 13,3 17,7 18 10 - - WZW 1011,7 30 6 0,0
23.09.2018 12:00:00 13,2 7,7 14,9 14,5 12,7 17,7 18 10 - - ZW 1012,0 18 56 0,0
23.09.2018 11:00:00 11,9 7,9 13,2 12,9 12,3 17,7 14 8 - - WZW 1012,5 19 41 0,0
23.09.2018 10:00:00 10,6 7,7 11,4 11,1 12,1 17,7 14 8 - - W 1012,8 15 38 0,0
23.09.2018 09:00:00 9,4 7,3 10,1 9,3 12,1 17,7 18 10 - - WZW 1012,6 12 60 0,0
23.09.2018 08:00:00 8,4 7,1 7,6 8,5 12,2 17,7 14 8 - - WZW 1012,5 10 8 0,0
23.09.2018 07:00:00 8,4 7,0 7,3 8,6 12,4 17,8 14 8 - - WZW 1012,4 10 0 0,0
23.09.2018 06:00:00 8,6 7,2 7,4 8,8 12,6 17,8 18 10 - - WZW 1012,7 12 0 0,0
23.09.2018 05:00:00 8,9 7,1 7,7 9,0 12,9 17,8 14 8 - - ZW 1013,0 17 0 0,0
23.09.2018 04:00:00 9,1 7,3 7,9 9,2 13,1 17,8 14 8 - - ZW 1013,2 25 0 0,0
23.09.2018 03:00:00 9,6 7,4 8,3 9,5 13,3 17,8 14 8 - - ZW 1013,3 30 0 0,0
23.09.2018 02:00:00 10,0 7,5 8,5 9,7 13,5 17,8 18 10 - - ZW 1013,5 35 0 0,0
23.09.2018 01:00:00 10,3 7,5 9,0 9,9 13,8 17,8 18 10 - - ZW 1013,4 40 0 0,0
23.09.2018 00:00:00 10,6 7,6 9,4 10,2 14,1 17,8 14 8 - - ZW 1013,6 40 0 0,0
22.09.2018 23:00:00 10,7 7,3 9,3 10,5 14,4 17,8 18 10 - - ZW 1013,6 40 0 0,0
22.09.2018 22:00:00 10,8 7,3 9,4 10,9 14,8 17,8 14 8 - - ZW 1013,5 40 0 0,0
22.09.2018 21:00:00 10,9 7,7 9,7 11,5 15,1 17,8 18 10 - - WZW 1013,4 45 0 0,0
22.09.2018 20:00:00 11,4 7,9 10,1 12,2 15,5 17,8 14 8 - - WZW 1013,4 50 0 0,0
22.09.2018 19:00:00 11,6 8,2 10,3 13,1 15,7 17,9 22 12 - - WZW 1013,6 50 9 0,1
22.09.2018 18:00:00 12,1 8,2 11,3 14,0 15,9 17,9 22 12 - - WZW 1014,0 40 13 0,7
22.09.2018 17:00:00 12,0 8,5 10,6 14,6 16,1 17,9 22 12 - - W 1014,2 20 0 1,7
22.09.2018 16:00:00 14,4 8,7 14,5 15,6 16,1 17,9 16 9 53 29 W 1013,8 55 4 0,2
22.09.2018 15:00:00 16,0 5,6 15,6 16,6 15,9 17,9 27 14 49 27 WZW 1013,4 70 19 0,0
22.09.2018 14:00:00 16,1 6,6 17,2 16,8 15,5 17,9 23 13 47 26 WZW 1013,5 65 35 0,0
22.09.2018 13:00:00 15,1 7,3 15,2 16,8 15,0 17,9 23 12 43 23 WZW 1013,9 60 40 0,0
22.09.2018 12:00:00 15,1 8,0 16,7 15,9 14,5 17,9 21 11 37 20 WZW 1014,2 60 50 0,0
22.09.2018 11:00:00 14,0 8,2 15,7 13,9 14,2 17,9 21 12 35 19 WZW 1014,1 60 50 0,0
22.09.2018 10:00:00 12,3 7,8 13,4 12,4 14,1 17,9 19 10 36 19 WZW 1013,6 55 60 0,0
22.09.2018 09:00:00 11,1 7,3 11,6 10,7 14,2 17,9 21 11 35 19 WZW 1012,8 50 60 0,0
22.09.2018 08:00:00 10,0 6,9 9,2 10,1 14,4 17,8 19 11 35 19 WZW 1012,2 50 11 0,0
22.09.2018 07:00:00 9,8 6,6 8,7 10,2 14,6 17,8 18 10 31 17 ZW 1011,4 50 0 0,0
22.09.2018 06:00:00 9,6 6,3 8,9 10,2 15,0 17,8 16 9 34 18 WZW 1010,9 55 0 0,0
22.09.2018 05:00:00 9,5 6,0 8,3 10,2 15,4 17,8 16 8 34 19 WZW 1010,4 70 0 0,0
22.09.2018 04:00:00 10,0 5,5 8,7 10,6 15,8 17,8 16 8 35 19 WZW 1009,8 70 0 0,0
22.09.2018 03:00:00 10,6 5,2 9,3 11,1 16,3 17,8 17 9 37 20 ZW 1009,1 70 0 0,0
22.09.2018 02:00:00 11,3 5,3 10,1 11,7 16,7 17,8 16 9 40 21 WZW 1008,5 60 0 0,0
22.09.2018 01:00:00 12,0 6,6 10,6 12,4 17,2 17,8 18 10 31 17 ZW 1008,3 50 0 0,0
22.09.2018 00:00:00 12,3 6,9 11,1 12,9 17,8 17,8 18 10 34 19 WZW 1008,1 50 0 0,0
21.09.2018 23:00:00 12,3 7,5 10,8 13,8 18,3 17,8 14 8 32 17 WZW 1007,6 45 0 0,0
21.09.2018 22:00:00 13,3 8,2 12,2 15,0 18,8 17,8 19 10 38 21 WZW 1006,9 45 0 0,0
21.09.2018 21:00:00 13,8 11,7 12,8 15,8 19,2 17,8 14 8 28 15 WZW 1005,9 30 0 0,0
21.09.2018 20:00:00 13,5 11,5 12,6 16,3 19,8 17,8 13 7 25 14 ZW 1005,1 35 0 0,0
21.09.2018 19:00:00 13,3 11,2 12,5 17,2 20,4 17,8 16 9 34 18 ZW 1004,5 40 0 0,4
21.09.2018 18:00:00 13,9 11,9 13,1 18,2 21,0 17,8 19 10 32 18 W 1004,3 17 0 1,3
21.09.2018 17:00:00 13,5 12,4 13,1 20,1 21,3 17,8 20 11 91 49 W 1003,3 6 0 5,9
21.09.2018 16:00:00 18,1 12,7 16,3 24,5 21,1 17,8 63 34 92 50 W 1001,4 5 2 0,0
21.09.2018 15:00:00 27,9 11,1 27,9 25,0 20,6 17,8 30 16 56 30 ZZW 999,2 20 18 0,0
21.09.2018 14:00:00 27,8 12,4 28,1 24,5 20,1 17,8 25 14 53 29 ZZW 1000,5 22 22 0,0
21.09.2018 13:00:00 27,4 13,2 29,2 24,0 19,4 17,8 26 14 50 27 Z 1001,2 25 48 0,0
21.09.2018 12:00:00 26,2 13,1 27,9 22,5 18,8 17,8 21 11 44 24 Z 1002,4 25 60 0,0
21.09.2018 11:00:00 25,2 12,6 27,5 20,5 18,4 17,8 19 10 38 20 Z 1003,7 17 55 0,0
21.09.2018 10:00:00 22,2 12,4 22,7 18,7 18,2 17,8 14 8 29 16 Z 1004,4 20 46 0,0
21.09.2018 09:00:00 20,2 11,5 20,8 17,0 18,3 17,8 9 5 24 13 Z 1005,1 22 44 0,0
21.09.2018 08:00:00 18,5 10,6 16,7 16,3 18,5 17,8 11 6 23 12 Z 1006,0 26 5 0,0
21.09.2018 07:00:00 17,8 10,7 15,3 16,2 18,7 17,8 9 5 24 13 Z 1006,7 23 0 0,0
21.09.2018 06:00:00 17,5 11,2 15,6 16,5 18,9 17,8 12 7 23 13 ZZO 1007,5 20 0 0,0
21.09.2018 05:00:00 17,4 11,4 14,7 16,8 19,2 17,8 9 5 21 12 ZZO 1008,4 20 0 0,0
21.09.2018 04:00:00 17,9 11,6 16,1 17,0 19,4 17,8 10 6 18 10 ZZO 1009,4 20 0 0,0
21.09.2018 03:00:00 16,8 11,7 14,5 17,3 19,7 17,7 9 5 16 9 ZZO 1010,1 20 0 0,0
21.09.2018 02:00:00 16,6 12,2 13,4 17,7 20,1 17,7 5 3 16 9 Z 1011,0 19 0 0,0
21.09.2018 01:00:00 16,7 12,3 13,9 18,1 20,4 17,7 7 4 13 7 Z 1011,6 20 0 0,0
21.09.2018 00:00:00 16,2 12,7 12,9 18,7 20,8 17,7 5 3 11 6 Z 1012,2 18 0 0,0
20.09.2018 23:00:00 16,9 12,9 13,3 19,4 21,2 17,7 4 2 10 5 Z 1012,6 20 0 0,0
20.09.2018 22:00:00 17,2 13,2 13,7 20,2 21,6 17,7 5 3 8 4 Z 1013,0 20 0 0,0
20.09.2018 21:00:00 17,8 13,5 14,6 21,2 21,9 17,7 4 2 8 4 Z 1013,3 20 0 0,0
20.09.2018 20:00:00 19,0 13,9 16,0 22,5 22,1 17,7 4 2 9 5 Z 1013,5 19 0 0,0
20.09.2018 19:00:00 23,6 12,7 20,7 24,1 22,1 17,7 5 3 19 10 ZZW 1013,7 25 34 0,0
20.09.2018 18:00:00 24,8 11,9 24,2 24,8 22,1 17,7 10 5 23 12 ZW 1014,2 28 0 0,0
20.09.2018 17:00:00 25,0 11,4 24,9 25,7 21,8 17,7 17 9 31 17 ZW 1014,4 40 10 0,0
20.09.2018 16:00:00 25,2 11,3 25,7 26,5 21,3 17,7 18 10 36 19 ZW 1014,6 40 49 0,0
20.09.2018 15:00:00 25,6 11,7 28,0 26,4 20,7 17,7 18 10 41 22 ZW 1014,9 40 52 0,0
20.09.2018 14:00:00 24,7 12,5 27,3 25,1 20,1 17,7 17 9 40 22 WZW 1015,5 35 48 0,0
20.09.2018 13:00:00 23,7 12,5 25,0 24,3 19,4 17,7 22 12 40 22 WZW 1015,8 30 58 0,0
20.09.2018 12:00:00 23,2 13,2 25,7 22,5 18,9 17,7 15 8 35 19 ZW 1016,2 30 60 0,0
20.09.2018 11:00:00 21,7 13,1 23,8 20,3 18,5 17,7 17 9 31 17 ZW 1016,5 30 60 0,0
20.09.2018 10:00:00 20,3 12,9 21,7 18,3 18,4 17,7 14 7 31 17 ZW 1016,5 22 60 0,0
20.09.2018 09:00:00 19,0 12,4 19,8 17,0 18,5 17,7 11 6 20 11 ZW 1016,6 20 39 0,0
20.09.2018 08:00:00 17,0 12,3 15,1 16,5 18,7 17,7 9 5 17 9 ZZW 1016,6 18 0 0,0
20.09.2018 07:00:00 17,5 12,1 15,7 16,7 18,9 17,7 9 5 17 9 ZW 1016,2 18 0 0,0
20.09.2018 06:00:00 17,9 12,4 16,3 16,8 19,1 17,7 9 5 17 9 ZW 1016,1 18 0 0,0
20.09.2018 05:00:00 15,8 12,9 12,3 17,1 19,4 17,7 8 4 12 6 ZZW 1015,9 16 0 0,0
20.09.2018 04:00:00 16,9 13,0 13,9 17,5 19,7 17,7 9 5 13 7 ZZW 1016,0 17 0 0,0
20.09.2018 03:00:00 16,4 13,2 13,3 17,9 20,0 17,7 7 4 10 6 ZZW 1015,8 16 0 0,0
20.09.2018 02:00:00 18,4 13,0 14,7 18,4 20,3 17,6 7 4 12 6 WZW 1015,7 20 0 0,0
20.09.2018 01:00:00 18,9 13,0 15,5 18,8 20,7 17,6 7 4 14 8 W 1015,4 20 0 0,0
20.09.2018 00:00:00 18,7 13,2 14,6 19,3 21,0 17,6 9 5 15 8 ZZW 1015,3 20 0 0,0
19.09.2018 23:00:00 20,4 13,3 16,2 20,0 21,4 17,6 10 5 18 10 ZZW 1015,4 20 0 0,0
19.09.2018 22:00:00 20,2 13,5 16,3 20,7 21,8 17,6 5 3 9 5 Z 1015,4 20 0 0,0
19.09.2018 21:00:00 20,6 13,8 17,0 21,7 22,1 17,6 5 3 10 5 Z 1015,2 20 0 0,0
19.09.2018 20:00:00 20,8 13,6 16,5 22,9 22,4 17,6 6 3 11 6 ZZO 1015,2 25 0 0,0
19.09.2018 19:00:00 22,8 13,8 19,4 24,7 22,4 17,6 3 2 14 8 Z 1015,2 30 40 0,0
19.09.2018 18:00:00 25,7 11,7 25,3 26,3 22,2 17,6 10 6 22 12 ZW 1015,5 33 60 0,0
19.09.2018 17:00:00 25,9 12,1 27,0 27,1 21,8 17,6 13 7 25 14 ZW 1015,9 30 60 0,0
19.09.2018 16:00:00 25,5 12,5 27,1 27,4 21,2 17,6 12 6 27 14 WZW 1016,1 18 60 0,0
19.09.2018 15:00:00 25,4 13,2 28,5 26,8 20,5 17,6 11 6 30 16 ZW 1016,5 16 60 0,0
19.09.2018 14:00:00 24,8 13,3 27,7 25,7 19,7 17,6 14 8 29 16 ZW 1016,9 16 60 0,0
19.09.2018 13:00:00 23,1 13,4 26,4 24,1 19,0 17,6 14 7 28 15 ZW 1016,9 25 60 0,0
19.09.2018 12:00:00 21,7 13,4 23,9 22,2 18,4 17,6 13 7 26 14 ZZW 1017,1 20 60 0,0
19.09.2018 11:00:00 20,1 13,6 22,8 19,8 18,0 17,6 10 5 24 13 ZW 1017,3 15 60 0,0

tt = temperatuur
td = dauwpunt
tt 5cm = temperatuur 5cm
tt -5cm = temperatuur -5cm
tt -20cm = temperatuur -20cm
tt -100cm = temperatuur -100cm
ff = windsnelheid
fx = windstoten
dd = windrichting
ppp = luchtdruk
vv = zicht
sd = Zonneschijnduur
rr = neerslag

Weerstations in de omgeving